| time (UTC) | temp F | wind direction | speed MPH | gust MPH | rain 1hr in | rain 24hr in | rain mn in | humidity % | barometer mb |
| 20260508202641 | 77 | 321 | 6.0 | 14.0 | 0.00 | 0.00 | 0.00 | 17 | 1014.3 |
| 20260508201629 | 76 | 236 | 6.0 | 12.0 | 0.00 | 0.00 | 0.00 | 16 | 1014.3 |
| 20260508200621 | 76 | 277 | 6.0 | 10.0 | 0.00 | 0.00 | 0.00 | 17 | 1014.3 |
| 20260508195621 | 75 | 257 | 6.0 | 11.0 | 0.00 | 0.00 | 0.00 | 20 | 1014.3 |
| 20260508194627 | 74 | 5 | 6.0 | 11.0 | 0.00 | 0.00 | 0.00 | 20 | 1014.6 |
| 20260508193636 | 75 | 227 | 5.0 | 11.0 | 0.00 | 0.00 | 0.00 | 20 | 1014.6 |
| 20260508192628 | 75 | 214 | 7.0 | 11.0 | 0.00 | 0.00 | 0.00 | 20 | 1014.6 |
| 20260508191614 | 74 | 347 | 3.0 | 8.0 | 0.00 | 0.00 | 0.00 | 20 | 1014.6 |
| 20260508190622 | 73 | 289 | 4.0 | 10.0 | 0.00 | 0.00 | 0.00 | 19 | 1014.8 |
| 20260508185621 | 73 | 244 | 3.0 | 15.0 | 0.00 | 0.00 | 0.00 | 21 | 1015.0 |
| 20260508184612 | 72 | 309 | 5.0 | 11.0 | 0.00 | 0.00 | 0.00 | 21 | 1015.2 |
| 20260508183640 | 73 | 233 | 4.0 | 10.0 | 0.00 | 0.00 | 0.00 | 21 | 1015.3 |
| 20260508182625 | 73 | 232 | 4.0 | 9.0 | 0.00 | 0.00 | 0.00 | 21 | 1015.4 |
| 20260508181614 | 71 | 338 | 3.0 | 13.0 | 0.00 | 0.00 | 0.00 | 21 | 1015.5 |
| 20260508180622 | 71 | 350 | 4.0 | 10.0 | 0.00 | 0.00 | 0.00 | 22 | 1015.5 |
| 20260508175623 | 71 | 298 | 5.0 | 12.0 | 0.00 | 0.00 | 0.00 | 22 | 1015.6 |
| 20260508174631 | 71 | 215 | 6.0 | 10.0 | 0.00 | 0.00 | 0.00 | 23 | 1015.6 |
| 20260508173615 | 70 | 238 | 10.0 | 14.0 | 0.00 | 0.00 | 0.00 | 23 | 1015.7 |
| 20260508172620 | 70 | 335 | 4.0 | 7.0 | 0.00 | 0.00 | 0.00 | 24 | 1015.8 |
| 20260508171614 | 69 | 82 | 1.0 | 6.0 | 0.00 | 0.00 | 0.00 | 25 | 1015.9 |
| 20260508170623 | 68 | 16 | 3.0 | 6.0 | 0.00 | 0.00 | 0.00 | 24 | 1015.9 |
| 20260508165623 | 69 | 340 | 1.0 | 5.0 | 0.00 | 0.00 | 0.00 | 24 | 1015.9 |
| 20260508164630 | 69 | 200 | 3.0 | 7.0 | 0.00 | 0.00 | 0.00 | 25 | 1015.9 |
| 20260508163641 | 68 | 12 | 1.0 | 4.0 | 0.00 | 0.00 | 0.00 | 25 | 1015.9 |
| 20260508162629 | 68 | 49 | 2.0 | 4.0 | 0.00 | 0.00 | 0.00 | 26 | 1015.9 |
| 20260508161613 | 67 | 68 | 0.0 | 5.0 | 0.00 | 0.00 | 0.00 | 26 | 1015.9 |
| 20260508160623 | 66 | 13 | 2.0 | 5.0 | 0.00 | 0.00 | 0.00 | 26 | 1016.0 |
| 20260508155626 | 66 | 30 | 3.0 | 5.0 | 0.00 | 0.00 | 0.00 | 28 | 1016.0 |
| 20260508154612 | 64 | 17 | 2.0 | 5.0 | 0.00 | 0.00 | 0.00 | 29 | 1016.1 |
| 20260508153620 | 64 | 16 | 2.0 | 5.0 | 0.00 | 0.00 | 0.00 | 30 | 1016.0 |
| 20260508152627 | 63 | 63 | 2.0 | 5.0 | 0.00 | 0.00 | 0.00 | 31 | 1016.0 |
| 20260508151615 | 62 | 35 | 2.0 | 4.0 | 0.00 | 0.00 | 0.00 | 32 | 1016.0 |
| 20260508150622 | 60 | 34 | 2.0 | 4.0 | 0.00 | 0.00 | 0.00 | 35 | 1016.0 |
| 20260508145642 | 57 | 34 | 0.0 | 1.0 | 0.00 | 0.00 | 0.00 | 46 | 1016.0 |
| 20260508144625 | 55 | 34 | 0.0 | 2.0 | 0.00 | 0.00 | 0.00 | 50 | 1016.0 |
| 20260508143613 | 54 | 34 | 0.0 | 3.0 | 0.00 | 0.00 | 0.00 | 49 | 1016.0 |
| 20260508142621 | 53 | 360 | 0.0 | 1.0 | 0.00 | 0.00 | 0.00 | 47 | 1015.9 |
| 20260508141631 | 52 | 36 | 0.0 | 2.0 | 0.00 | 0.00 | 0.00 | 45 | 1016.0 |
| 20260508140622 | 51 | 34 | 0.0 | 2.0 | 0.00 | 0.00 | 0.00 | 46 | 1015.9 |
| 20260508135624 | 50 | 360 | 1.0 | 3.0 | 0.00 | 0.00 | 0.00 | 48 | 1015.8 |
| 20260508134615 | 49 | 35 | 0.0 | 0.0 | 0.00 | 0.00 | 0.00 | 49 | 1015.8 |
| 20260508133617 | 47 | 38 | 0.0 | 2.0 | 0.00 | 0.00 | 0.00 | 53 | 1015.8 |
| 20260508132626 | 44 | 36 | 0.0 | 1.0 | 0.00 | 0.00 | 0.00 | 58 | 1015.6 |
| 20260508131618 | 41 | 34 | 0.0 | 2.0 | 0.00 | 0.00 | 0.00 | 60 | 1015.6 |
| 20260508130622 | 41 | 34 | 1.0 | 4.0 | 0.00 | 0.00 | 0.00 | 60 | 1015.4 |
| 20260508125613 | 41 | 34 | 2.0 | 4.0 | 0.00 | 0.00 | 0.00 | 60 | 1015.4 |
| 20260508124618 | 40 | 34 | 2.0 | 4.0 | 0.00 | 0.00 | 0.00 | 61 | 1015.2 |
| 20260508123626 | 40 | 19 | 2.0 | 5.0 | 0.00 | 0.00 | 0.00 | 61 | 1015.1 |
| 20260508122617 | 40 | 32 | 0.0 | 1.0 | 0.00 | 0.00 | 0.00 | 59 | 1015.0 |
| 20260508121621 | 40 | 32 | 0.0 | 0.0 | 0.00 | 0.00 | 0.00 | 58 | 1015.0 |
| 20260508120628 | 40 | 32 | 0.0 | 5.0 | 0.00 | 0.00 | 0.00 | 57 | 1014.9 |
| 20260508115623 | 42 | 360 | 2.0 | 6.0 | 0.00 | 0.00 | 0.00 | 53 | 1014.8 |
| 20260508114615 | 43 | 22 | 0.0 | 1.0 | 0.00 | 0.00 | 0.00 | 55 | 1014.6 |
| 20260508113623 | 43 | 22 | 1.0 | 2.0 | 0.00 | 0.00 | 0.00 | 56 | 1014.5 |
| 20260508112632 | 43 | 22 | 2.0 | 4.0 | 0.00 | 0.00 | 0.00 | 56 | 1014.5 |
| 20260508111616 | 44 | 21 | 2.0 | 4.0 | 0.00 | 0.00 | 0.00 | 55 | 1014.4 |
| 20260508110629 | 44 | 21 | 2.0 | 4.0 | 0.00 | 0.00 | 0.00 | 56 | 1014.4 |
| 20260508105629 | 44 | 21 | 2.0 | 3.0 | 0.00 | 0.00 | 0.00 | 54 | 1014.4 |
| 20260508104635 | 44 | 21 | 0.0 | 4.0 | 0.00 | 0.00 | 0.00 | 55 | 1014.2 |
| 20260508103641 | 44 | 51 | 1.0 | 4.0 | 0.00 | 0.00 | 0.00 | 56 | 1014.2 |
| 20260508102624 | 44 | 71 | 1.0 | 2.0 | 0.00 | 0.00 | 0.00 | 54 | 1014.2 |
| 20260508101612 | 45 | 71 | 1.0 | 2.0 | 0.00 | 0.00 | 0.00 | 54 | 1014.0 |
| 20260508100639 | 45 | 71 | 2.0 | 4.0 | 0.00 | 0.00 | 0.00 | 54 | 1014.0 |
| 20260508095650 | 45 | 71 | 0.0 | 3.0 | 0.00 | 0.00 | 0.00 | 53 | 1013.8 |
| 20260508094618 | 46 | 71 | 0.0 | 2.0 | 0.00 | 0.00 | 0.00 | 52 | 1013.7 |
| 20260508093623 | 46 | 71 | 0.0 | 2.0 | 0.00 | 0.00 | 0.00 | 51 | 1013.7 |
| 20260508092617 | 46 | 71 | 1.0 | 3.0 | 0.00 | 0.00 | 0.00 | 53 | 1013.7 |
| 20260508091624 | 44 | 75 | 1.0 | 4.0 | 0.00 | 0.00 | 0.00 | 58 | 1013.5 |
| 20260508090628 | 42 | 76 | 3.0 | 7.0 | 0.00 | 0.00 | 0.00 | 59 | 1013.5 |
| 20260508085620 | 44 | 50 | 3.0 | 5.0 | 0.00 | 0.00 | 0.00 | 55 | 1013.5 |
| 20260508084629 | 45 | 113 | 1.0 | 2.0 | 0.00 | 0.00 | 0.00 | 55 | 1013.5 |
| 20260508083638 | 46 | 113 | 1.0 | 3.0 | 0.00 | 0.00 | 0.00 | 53 | 1013.8 |
| 20260508082625 | 45 | 117 | 0.0 | 2.0 | 0.00 | 0.00 | 0.00 | 55 | 1013.8 |
| 20260508081615 | 43 | 117 | 1.0 | 2.0 | 0.00 | 0.00 | 0.00 | 59 | 1013.9 |
| 20260508080645 | 44 | 117 | 3.0 | 6.0 | 0.00 | 0.00 | 0.00 | 53 | 1013.8 |
| 20260508075624 | 47 | 355 | 2.0 | 4.0 | 0.00 | 0.00 | 0.00 | 51 | 1013.6 |
| 20260508074613 | 47 | 15 | 1.0 | 4.0 | 0.00 | 0.00 | 0.00 | 52 | 1013.7 |
| 20260508073620 | 46 | 67 | 1.0 | 4.0 | 0.00 | 0.00 | 0.00 | 53 | 1013.9 |
| 20260508072624 | 46 | 73 | 3.0 | 6.0 | 0.00 | 0.00 | 0.00 | 52 | 1014.0 |
| 20260508071616 | 47 | 355 | 2.0 | 5.0 | 0.00 | 0.00 | 0.00 | 49 | 1014.0 |
| 20260508070624 | 49 | 59 | 0.0 | 2.0 | 0.00 | 0.00 | 0.00 | 46 | 1013.9 |
| 20260508065621 | 50 | 59 | 1.0 | 2.0 | 0.00 | 0.00 | 0.00 | 46 | 1013.8 |
| 20260508064645 | 50 | 61 | 1.0 | 2.0 | 0.00 | 0.00 | 0.00 | 46 | 1013.8 |
| 20260508063635 | 50 | 61 | 1.0 | 5.0 | 0.00 | 0.00 | 0.00 | 46 | 1013.8 |
| 20260508062624 | 49 | 59 | 2.0 | 5.0 | 0.00 | 0.00 | 0.00 | 46 | 1013.8 |
| 20260508061628 | 51 | 57 | 3.0 | 3.0 | 0.00 | 0.00 | 0.00 | 42 | 1013.8 |
| 20260508060613 | 53 | 57 | 0.0 | 1.0 | 0.00 | 0.00 | 0.00 | 42 | 1013.8 |
| 20260508055626 | 53 | 57 | 0.0 | 2.0 | 0.00 | 0.00 | 0.00 | 41 | 1013.9 |
| 20260508054616 | 54 | 57 | 0.0 | 1.0 | 0.00 | 0.00 | 0.00 | 40 | 1013.8 |
| 20260508053631 | 54 | 57 | 0.0 | 1.0 | 0.00 | 0.00 | 0.00 | 40 | 1013.9 |
| 20260508052620 | 54 | 57 | 0.0 | 2.0 | 0.00 | 0.00 | 0.00 | 39 | 1013.9 |
| 20260508051629 | 54 | 57 | 0.0 | 2.0 | 0.00 | 0.00 | 0.00 | 40 | 1013.9 |
| 20260508050636 | 53 | 57 | 1.0 | 2.0 | 0.00 | 0.00 | 0.00 | 41 | 1013.8 |
| 20260508045636 | 54 | 57 | 0.0 | 1.0 | 0.00 | 0.00 | 0.00 | 40 | 1013.7 |
| 20260508044622 | 53 | 57 | 0.0 | 3.0 | 0.00 | 0.00 | 0.00 | 40 | 1013.6 |
| 20260508043626 | 53 | 57 | 2.0 | 4.0 | 0.00 | 0.00 | 0.00 | 39 | 1013.7 |
| 20260508042613 | 54 | 57 | 1.0 | 4.0 | 0.00 | 0.00 | 0.00 | 38 | 1013.5 |
| 20260508041621 | 56 | 57 | 2.0 | 3.0 | 0.00 | 0.00 | 0.00 | 35 | 1013.4 |
| 20260508040646 | 58 | 57 | 1.0 | 4.0 | 0.00 | 0.00 | 0.00 | 34 | 1013.5 |
| 20260508035623 | 59 | 56 | 1.0 | 3.0 | 0.00 | 0.00 | 0.00 | 33 | 1013.3 |
| 20260508034631 | 60 | 56 | 1.0 | 4.0 | 0.00 | 0.00 | 0.00 | 32 | 1013.3 |
| 20260508033618 | 62 | 350 | 1.0 | 3.0 | 0.00 | 0.00 | 0.00 | 30 | 1013.1 |
| 20260508032630 | 63 | 301 | 0.0 | 2.0 | 0.00 | 0.00 | 0.00 | 29 | 1012.9 |
| 20260508031617 | 64 | 301 | 0.0 | 3.0 | 0.00 | 0.00 | 0.00 | 28 | 1012.8 |
| 20260508030623 | 65 | 291 | 3.0 | 6.0 | 0.00 | 0.00 | 0.00 | 27 | 1012.7 |
| 20260508025625 | 66 | 304 | 1.0 | 3.0 | 0.00 | 0.00 | 0.00 | 28 | 1012.7 |
| 20260508024617 | 66 | 315 | 1.0 | 4.0 | 0.00 | 0.00 | 0.00 | 28 | 1012.5 |
| 20260508023620 | 68 | 325 | 1.0 | 4.0 | 0.00 | 0.00 | 0.00 | 26 | 1012.4 |
| 20260508022629 | 68 | 305 | 3.0 | 5.0 | 0.00 | 0.00 | 0.00 | 25 | 1012.3 |
| 20260508021616 | 70 | 311 | 3.0 | 7.0 | 0.00 | 0.00 | 0.00 | 25 | 1012.2 |
| 20260508020623 | 70 | 328 | 3.0 | 10.0 | 0.00 | 0.00 | 0.00 | 24 | 1011.9 |
| 20260508015620 | 71 | 290 | 4.0 | 12.0 | 0.00 | 0.00 | 0.00 | 23 | 1011.9 |
| 20260508014627 | 72 | 306 | 6.0 | 14.0 | 0.00 | 0.00 | 0.00 | 23 | 1011.8 |
| 20260508013651 | 72 | 298 | 8.0 | 13.0 | 0.00 | 0.00 | 0.00 | 23 | 1011.7 |
| 20260508012621 | 73 | 329 | 6.0 | 12.0 | 0.00 | 0.00 | 0.00 | 22 | 1011.8 |
| 20260508011630 | 73 | 338 | 7.0 | 13.0 | 0.00 | 0.00 | 0.00 | 22 | 1011.6 |
| 20260508010620 | 73 | 309 | 6.0 | 12.0 | 0.00 | 0.00 | 0.00 | 22 | 1011.7 |
| 20260508005620 | 74 | 258 | 6.0 | 13.0 | 0.00 | 0.00 | 0.00 | 21 | 1011.8 |
| 20260508004630 | 74 | 304 | 5.0 | 12.0 | 0.00 | 0.00 | 0.00 | 21 | 1011.8 |
| 20260508003619 | 74 | 301 | 5.0 | 12.0 | 0.00 | 0.00 | 0.00 | 19 | 1011.9 |
| 20260508002625 | 75 | 292 | 5.0 | 11.0 | 0.00 | 0.00 | 0.00 | 22 | 1011.9 |
| 20260508001614 | 75 | 239 | 7.0 | 13.0 | 0.00 | 0.00 | 0.00 | 23 | 1011.9 |
| 20260508000645 | 75 | 236 | 5.0 | 9.0 | 0.00 | 0.00 | 0.00 | 23 | 1012.1 |
| 20260507235625 | 75 | 297 | 6.0 | 12.0 | 0.00 | 0.00 | 0.00 | 23 | 1012.1 |
| 20260507234615 | 75 | 275 | 5.0 | 13.0 | 0.00 | 0.00 | 0.00 | 23 | 1012.2 |
| 20260507233622 | 75 | 292 | 7.0 | 14.0 | 0.00 | 0.00 | 0.00 | 22 | 1012.3 |
| 20260507232629 | 76 | 272 | 5.0 | 11.0 | 0.00 | 0.00 | 0.00 | 21 | 1012.1 |
| 20260507231620 | 75 | 249 | 7.0 | 13.0 | 0.00 | 0.00 | 0.00 | 21 | 1012.2 |
| 20260507230628 | 75 | 295 | 5.0 | 13.0 | 0.00 | 0.00 | 0.00 | 21 | 1012.3 |
| 20260507225628 | 75 | 284 | 5.0 | 11.0 | 0.00 | 0.00 | 0.00 | 22 | 1012.4 |
| 20260507224615 | 74 | 291 | 4.0 | 9.0 | 0.00 | 0.00 | 0.00 | 21 | 1012.5 |
| 20260507223626 | 74 | 335 | 4.0 | 9.0 | 0.00 | 0.00 | 0.00 | 22 | 1012.7 |
| 20260507222612 | 73 | 294 | 2.0 | 7.0 | 0.00 | 0.00 | 0.00 | 23 | 1012.8 |
| 20260507221618 | 72 | 347 | 3.0 | 9.0 | 0.00 | 0.00 | 0.00 | 22 | 1013.0 |
| 20260507220627 | 72 | 346 | 4.0 | 9.0 | 0.00 | 0.00 | 0.00 | 24 | 1013.2 |
| 20260507215631 | 72 | 304 | 0.0 | 11.0 | 0.00 | 0.00 | 0.00 | 22 | 1013.3 |
| 20260507214618 | 72 | 296 | 5.0 | 9.0 | 0.00 | 0.00 | 0.00 | 22 | 1013.4 |
| 20260507213624 | 72 | 306 | 5.0 | 12.0 | 0.00 | 0.00 | 0.00 | 23 | 1013.5 |
| 20260507212631 | 72 | 292 | 6.0 | 12.0 | 0.00 | 0.00 | 0.00 | 21 | 1013.7 |
| 20260507211643 | 73 | 350 | 5.0 | 11.0 | 0.00 | 0.00 | 0.00 | 22 | 1013.9 |
| 20260507210631 | 72 | 325 | 6.0 | 14.0 | 0.00 | 0.00 | 0.00 | 22 | 1013.9 |
| 20260507205628 | 72 | 329 | 8.0 | 14.0 | 0.00 | 0.00 | 0.00 | 22 | 1013.8 |
| 20260507204615 | 73 | 309 | 6.0 | 11.0 | 0.00 | 0.00 | 0.00 | 21 | 1013.9 |
| 20260507203626 | 73 | 282 | 5.0 | 11.0 | 0.00 | 0.00 | 0.00 | 21 | 1014.0 |